Location: ????????
(56.1167°N, 38.6333°E)
Time: 21:55:54
(UTC+00:00)

COSMOS 2406 - Pass Details

Date: 18 November 2025
Orbit: 845 x 858 km, 71.0° (Epoch: 06 December)

Event Time Altitude Azimuth Distance (km) Brightness Sun altitude
Rises 16:23:24 0° 323° (NW) 3,419 6.9 -26.1°
Reaches altitude 10° 16:25:59 10° 316° (NW) 2,481 6.2 -26.4°
Maximum altitude 16:31:13 39° 249° (WSW) 1,245 4.4 -27.2°
Drops below altitude 10° 16:36:27 10° 182° (S) 2,472 5.6 -27.9°
Enters shadow 16:36:52 - 181° (S) 2,621 5.7 -27.9°
